Location: Newark
(34.2320°N, 82.8945°W)
Time: 00:09:40
(UTC+00:00)

ISS - Visible Passes

Search period start: 29 March 2020 00:00
Search period end: 08 April 2020 00:00
Orbit: 417 x 423 km, 51.6° (Epoch: 29 March)

Date Brightness Start Highest point End Pass type
(mag) Time Alt. Az. Time Alt. Az. Time Alt. Az.
01 Apr -0.8 02:01:42 10° N 02:02:07 12° N 02:02:07 12° N visible
02 Apr -1.2 01:15:10 10° N 01:16:21 11° NNE 01:16:40 11° NNE visible
03 Apr -1.3 02:02:59 10° NW 02:04:15 20° NNW 02:04:15 20° NNW visible
04 Apr -2.3 01:15:51 10° NNW 01:18:43 25° NE 01:18:53 25° NE visible
05 Apr -1.7 00:28:53 10° NNW 00:31:09 17° NNE 00:33:23 10° ENE visible
05 Apr -1.5 02:04:53 10° WNW 02:06:34 26° WNW 02:06:34 26° WNW visible
06 Apr -3.9 01:17:24 10° NW 01:20:46 82° NE 01:21:21 58° ESE visible
07 Apr -3.2 00:30:05 10° NW 00:33:19 43° NE 00:36:12 12° ESE visible
07 Apr -0.9 02:07:59 10° W 02:09:11 13° WSW 02:09:11 13° WSW visible
